[[{"header":{"parameterUnit":"m.s-1","parameterCategory":1,"la1":30.2991,"la2":30.254,"lo1":-89.0895,"lo2":-89.0444,"dy":0.0017,"dx":0.0017,"nx":28,"ny":28,"refTime":"2023-08-17T03:00:00:Z","depth":0,"parameterNumber":2,"parameterNumberName":"U-component_of_WINDS"},"data":[0,0,0,0,0,0,0,0,0,0,0,0,0,0,0,0,0,0,0,0,0,0,0,0,0,0,0,0,0,0,0,0,0,0,0,0,0,0,0,0,0,0,0,0,0,0,0,0,0,0,0,0,0,0,0,0,0,0,-0.0389,-0.0389,0,-0.0457,-0.0458,-0.0459,-0.0567,-0.0569,-0.0571,-0.0573,-0.064,-0.064,-0.064,0,0,0,0,0,0,0,0,0,0,0,0,0,-0.0346,-0.0347,-0.0388,-0.0389,-0.039,-0.0457,-0.0458,-0.0459,-0.0567,-0.057,-0.0572,-0.0574,-0.064,-0.064,-0.064,0,0,0,0,0,0,0,0,0,0,0,0,0,-0.0385,-0.0347,-0.0388,-0.0452,-0.0459,-0.0457,-0.0458,-0.0459,-0.0567,-0.057,-0.0573,-0.0575,-0.064,-0.064,-0.064,-0.058,0,0,-0.064,-0.064,0,0,0,0,0,0,0,0,-0.0382,-0.0386,-0.0442,-0.0448,-0.0455,-0.0507,-0.0468,-0.05,-0.0566,-0.0525,-0.0573,-0.0577,-0.0593,-0.0597,-0.0603,-0.0583,-0.0586,-0.064,-0.064,-0.0639,-0.0639,0,0,0,0,0,0,0,-0.038,-0.0384,-0.0416,-0.0443,-0.0451,-0.0476,-0.0485,-0.0474,-0.0542,-0.0529,-0.0537,-0.0544,-0.0597,-0.0603,-0.0606,-0.0587,-0.064,-0.0639,-0.0639,-0.0639,-0.0518,-0.0515,0,0,0,0,0,0,-0.0368,-0.0381,-0.0414,-0.0418,-0.0425,-0.0474,-0.0484,-0.0487,-0.0542,-0.0553,-0.0542,-0.0549,-0.0602,-0.0606,-0.0608,-0.0539,-0.0639,-0.0639,-0.0639,-0.0521,-0.0517,-0.0514,0,0,0,0,0,0,-0.0367,-0.037,-0.0411,-0.0402,-0.0409,-0.0472,-0.0474,-0.0487,-0.0493,-0.0552,-0.0564,-0.0535,-0.0604,-0.0609,-0.0586,-0.0543,-0.0639,-0.0639,-0.0525,-0.052,-0.0516,-0.0402,0,0,0,0,0,0,-0.0365,-0.0369,-0.0348,-0.04,-0.0409,-0.0388,-0.0472,-0.0486,-0.0493,-0.0503,-0.0549,-0.0559,-0.0607,-0.0585,-0.0586,-0.0545,-0.0639,-0.0529,-0.0523,-0.0517,-0.041,-0.0394,-0.038,0,0,0,0,0,-0.0363,-0.0313,-0.0346,-0.035,-0.0384,-0.0385,-0.039,-0.0447,-0.0489,-0.0468,-0.0505,-0.0558,-0.0549,-0.0582,-0.0583,-0.0542,-0.0532,-0.0525,-0.0518,-0.0416,-0.0397,-0.0381,0,0,0,0,0,0,-0.0253,-0.0321,-0.0359,-0.0324,-0.0348,-0.0404,-0.0378,-0.0425,-0.0436,-0.0445,-0.0515,-0.0524,-0.0491,-0.0515,-0.0551,-0.0485,-0.0548,-0.0541,-0.0471,-0.0453,-0.0438,-0.0432,-0.0639,0,0,0,0,0,-0.0225,-0.0221,-0.0281,-0.0244,-0.0255,-0.0314,-0.0317,-0.0359,-0.0386,-0.0396,-0.0432,-0.0455,-0.0457,-0.0457,-0.0462,-0.0415,-0.0424,-0.0387,-0.0372,-0.036,-0.0351,-0.0325,-0.0308,-0.0491,-0.0491,-0.0491,0,0,-0.0166,-0.0203,-0.0196,-0.0223,-0.0247,-0.0239,-0.0322,-0.0312,-0.0306,-0.0394,-0.0374,-0.0401,-0.0432,-0.0395,-0.0381,-0.0414,-0.0304,-0.0351,-0.034,-0.0339,-0.0316,-0.0298,-0.0283,-0.0486,-0.0487,-0.0487,0,0,-0.0055,-0.0084,-0.0055,-0.0077,-0.0112,-0.0152,-0.0145,-0.0193,-0.0214,-0.0196,-0.0261,-0.0255,-0.0258,-0.0276,-0.0286,-0.018,-0.0228,-0.018,-0.0102,-0.0075,-0.0061,-0.0048,-0.0007,0.0008,-0.0173,-0.0172,-0.0172,0,0.0023,0.003,-0.0034,-0.0019,-0.0028,-0.0109,-0.0079,-0.0097,-0.013,-0.0134,-0.0171,-0.0175,-0.0201,-0.0168,-0.0142,-0.0149,-0.014,-0.0174,-0.0058,-0.0046,-0.0035,0.0003,0.0019,-0.0166,-0.0167,-0.0167,-0.0168,0,0.0129,0.0135,0.0162,0.0131,0.0125,0.0147,0.0088,0.009,0.0049,0.0014,0.0036,0.0001,-0.0011,-0.0008,-0.0048,0.002,0.0001,-0.0046,-0.011,-0.001,0.0025,0.0039,-0.0157,-0.0159,-0.0161,-0.0163,0,0,0.0309,0.0242,0.0254,0.024,0.0196,0.02,0.0219,0.0206,0.0211,0.019,0.0207,0.0207,0.0163,0.0153,0.0109,0.0133,0.0223,0.0083,0.0081,0.0113,0.03,0.0338,0.0356,0.0189,0.0192,0.0194,0.0304,0,0.0414,0.0443,0.0386,0.043,0.0436,0.036,0.0377,0.0354,0.0322,0.0323,0.0288,0.029,0.0231,0.0224,0.0243,0.0208,0.026,0.0199,0.0208,0.0209,0.0221,0.0374,0.0414,0.0519,0.0316,0.0319,0.032,0,0.054,0.0526,0.057,0.0526,0.0526,0.0543,0.0528,0.0529,0.0501,0.0476,0.0465,0.0415,0.0433,0.0369,0.0395,0.0355,0.0355,0.0338,0.0341,0.0342,0.0273,0.0383,0.0551,0.0568,0.0341,0.0339,0.0338,0,0.0672,0.0663,0.0689,0.0679,0.0627,0.0641,0.062,0.0589,0.0586,0.0572,0.057,0.0559,0.0555,0.0548,0.0497,0.0455,0.0531,0.0462,0.0513,0.0515,0.0535,0.0536,0.071,0.053,0.053,0.0529,0.0529,0,0.0797,0.0828,0.0748,0.0765,0.0798,0.0733,0.0768,0.0739,0.0713,0.0724,0.0656,0.0669,0.0599,0.0604,0.0564,0.0594,0.0591,0.0573,0.0563,0.0581,0.0584,0.0583,0.0576,0.0533,0.0533,0.0532,0.0531,0,0.0951,0.0898,0.0922,0.087,0.0858,0.0886,0.0842,0.0857,0.082,0.0835,0.0835,0.0778,0.0781,0.0728,0.072,0.0694,0.0743,0.0717,0.0753,0.0746,0.0802,0.0799,0.0984,0.1006,0.081,0.0811,0.0813,0,0.1036,0.1058,0.1009,0.1011,0.0994,0.0998,0.0994,0.0931,0.093,0.0901,0.092,0.0917,0.0911,0.092,0.0879,0.0874,0.085,0.0915,0.0849,0.0868,0.0856,0.0856,0.086,0.0931,0.0933,0.0935,0.0937,0,0.1194,0.1167,0.1163,0.1152,0.1149,0.1137,0.112,0.1126,0.1058,0.1061,0.1062,0.1058,0.1051,0.105,0.1037,0.1017,0.0968,0.0957,0.097,0.0991,0.1011,0.1005,0.0794,0.0954,0.0952,0.0951,0.095,0.0949,0.1318,0.1335,0.1304,0.1303,0.1284,0.1271,0.1282,0.1247,0.1247,0.1236,0.1198,0.1208,0.1181,0.1158,0.1143,0.115,0.1119,0.1136,0.114,0.1147,0.1159,0.1007,0.1147,0.1147,0.1146,0.1146,0.1145,0,0.1475,0.1451,0.1451,0.143,0.143,0.1381,0.1361,0.1365,0.1373,0.1352,0.1348,0.1352,0.1351,0.131,0.1305,0.1319,0.1297,0.132,0.1321,0.1318,0.1186,0.1177,0.1339,0.1339,0.1339,0.1339,0.1339,0.1339,0.1557,0.1585,0.1554,0.1573,0.1549,0.1557,0.155,0.1538,0.1521,0.1528,0.1527,0.15,0.1471,0.1464,0.1462,0.145,0.1453,0.1486,0.1467,0.1345,0.1326,0.1309,0.1301,0.1486,0.1486,0.1598,0.1599,0.16]},{"header":{"parameterUnit":"m.s-1","parameterCategory":1,"la1":30.2991,"la2":30.254,"lo1":-89.0895,"lo2":-89.0444,"dy":0.0017,"dx":0.0017,"nx":28,"ny":28,"refTime":"2023-08-17T03:00:00:Z","depth":0,"parameterNumber":3,"parameterNumberName":"V-component_of_WINDS"},"data":[0,0,0,0,0,0,0,0,0,0,0,0,0,0,0,0,0,0,0,0,0,0,0,0,0,0,0,0,0,0,0,0,0,0,0,0,0,0,0,0,0,0,0,0,0,0,0,0,0,0,0,0,0,0,0,0,0,0,-2.0489,-2.049,0,-2.051,-2.051,-2.051,-2.0486,-2.0485,-2.0484,-2.0484,-2.0503,-2.0504,-2.0505,0,0,0,0,0,0,0,0,0,0,0,0,0,-2.0428,-2.0429,-2.0489,-2.049,-2.049,-2.051,-2.051,-2.051,-2.0486,-2.0485,-2.0484,-2.0483,-2.0502,-2.0504,-2.0505,0,0,0,0,0,0,0,0,0,0,0,0,0,-2.0452,-2.0429,-2.0489,-2.048,-2.048,-2.051,-2.051,-2.051,-2.0487,-2.0485,-2.0484,-2.0483,-2.0502,-2.0504,-2.0506,-2.0545,0,0,-2.0512,-2.0513,0,0,0,0,0,0,0,0,-2.0451,-2.0454,-2.0481,-2.0481,-2.048,-2.0494,-2.0495,-2.0522,-2.0487,-2.0484,-2.0484,-2.0482,-2.0501,-2.0503,-2.0509,-2.0546,-2.0546,-2.0512,-2.0513,-2.0514,-2.0515,0,0,0,0,0,0,0,-2.0449,-2.0453,-2.0497,-2.0482,-2.0481,-2.0475,-2.0477,-2.05,-2.0499,-2.0484,-2.0482,-2.0485,-2.05,-2.0508,-2.051,-2.0547,-2.0512,-2.0514,-2.0515,-2.0516,-2.0615,-2.0617,0,0,0,0,0,0,-2.0448,-2.0452,-2.0497,-2.0498,-2.0462,-2.0477,-2.0479,-2.0491,-2.0499,-2.0499,-2.0486,-2.0484,-2.0505,-2.0507,-2.051,-2.0556,-2.0514,-2.0516,-2.0517,-2.0614,-2.0616,-2.0617,0,0,0,0,0,0,-2.0447,-2.0453,-2.0496,-2.0474,-2.0479,-2.0479,-2.0493,-2.0492,-2.0499,-2.0501,-2.0501,-2.0494,-2.0504,-2.0507,-2.0536,-2.0556,-2.0517,-2.0519,-2.0612,-2.0614,-2.0616,-2.0648,0,0,0,0,0,0,-2.0446,-2.0452,-2.0468,-2.0475,-2.0481,-2.0522,-2.0494,-2.0493,-2.0503,-2.05,-2.0508,-2.0508,-2.0503,-2.0533,-2.0538,-2.0558,-2.052,-2.061,-2.0613,-2.0616,-2.0645,-2.0651,-2.0656,0,0,0,0,0,-2.0444,-2.0475,-2.0469,-2.0474,-2.05,-2.0523,-2.0526,-2.0521,-2.0505,-2.052,-2.0521,-2.0508,-2.0554,-2.0537,-2.0542,-2.0563,-2.0609,-2.0612,-2.0615,-2.0643,-2.065,-2.0656,0,0,0,0,0,0,-2.047,-2.0476,-2.0469,-2.0504,-2.0513,-2.0519,-2.0538,-2.0528,-2.0542,-2.0539,-2.053,-2.0532,-2.0563,-2.0566,-2.0547,-2.0601,-2.0579,-2.0583,-2.0598,-2.0604,-2.061,-2.0608,-2.0522,0,0,0,0,0,-2.048,-2.0499,-2.0503,-2.0534,-2.0539,-2.0538,-2.0548,-2.0543,-2.0552,-2.0555,-2.0558,-2.0567,-2.0583,-2.0594,-2.0609,-2.0646,-2.0647,-2.0663,-2.0668,-2.0673,-2.0676,-2.0695,-2.0702,-2.0628,-2.0628,-2.0628,0,0,-2.05,-2.0506,-2.0519,-2.0539,-2.0546,-2.0565,-2.0541,-2.0563,-2.0577,-2.0558,-2.0586,-2.0588,-2.0598,-2.063,-2.0645,-2.0634,-2.0697,-2.0677,-2.0681,-2.0682,-2.07,-2.0707,-2.0713,-2.063,-2.063,-2.0629,0,0,-2.0547,-2.0554,-2.058,-2.0588,-2.0598,-2.0597,-2.0604,-2.0611,-2.0612,-2.064,-2.0627,-2.0643,-2.0671,-2.0678,-2.0686,-2.0736,-2.0724,-2.0741,-2.0769,-2.0788,-2.0794,-2.0799,-2.0816,-2.0822,-2.0745,-2.0745,-2.0745,0,-2.0571,-2.06,-2.0595,-2.0617,-2.0627,-2.0612,-2.0638,-2.0645,-2.066,-2.0666,-2.0654,-2.0689,-2.0694,-2.0728,-2.0741,-2.0748,-2.0754,-2.074,-2.0793,-2.0799,-2.0803,-2.082,-2.0826,-2.0747,-2.0747,-2.0747,-2.0747,0,-2.0629,-2.0649,-2.0669,-2.0684,-2.0696,-2.072,-2.0718,-2.073,-2.0724,-2.0724,-2.0752,-2.0758,-2.0774,-2.0782,-2.0776,-2.0815,-2.0808,-2.0795,-2.0772,-2.0812,-2.0827,-2.0834,-2.075,-2.0749,-2.0749,-2.0748,0,0,-2.0691,-2.0704,-2.0711,-2.0718,-2.0729,-2.0745,-2.0768,-2.0784,-2.0795,-2.0806,-2.0825,-2.0849,-2.0837,-2.0846,-2.084,-2.0857,-2.0896,-2.0842,-2.0842,-2.0851,-2.0938,-2.0947,-2.0955,-2.0889,-2.089,-2.0891,-2.0937,0,-2.0738,-2.0779,-2.0775,-2.0814,-2.0832,-2.0819,-2.0839,-2.0848,-2.0849,-2.0864,-2.0865,-2.0883,-2.0866,-2.0871,-2.0887,-2.0888,-2.0913,-2.0884,-2.0905,-2.0906,-2.0902,-2.0963,-2.0973,-2.1016,-2.0943,-2.0944,-2.0945,0,-2.0797,-2.0811,-2.0852,-2.086,-2.0868,-2.0886,-2.0901,-2.0916,-2.0926,-2.0925,-2.0935,-2.0927,-2.095,-2.0928,-2.0959,-2.094,-2.0948,-2.095,-2.0951,-2.0952,-2.0927,-2.0964,-2.103,-2.1036,-2.0954,-2.0954,-2.0953,0,-2.0838,-2.0867,-2.0895,-2.0901,-2.0912,-2.0925,-2.093,-2.0938,-2.0948,-2.0961,-2.0967,-2.0982,-2.099,-2.1002,-2.0998,-2.0983,-2.103,-2.1007,-2.1029,-2.1029,-2.1039,-2.1038,-2.1106,-2.1046,-2.1046,-2.1046,-2.1046,0,-2.089,-2.0915,-2.0913,-2.093,-2.0958,-2.0954,-2.0981,-2.0984,-2.0992,-2.1009,-2.0998,-2.1014,-2.1009,-2.1025,-2.1022,-2.1048,-2.1052,-2.1051,-2.105,-2.1052,-2.1052,-2.1056,-2.1053,-2.1048,-2.1047,-2.1047,-2.1047,0,-2.0939,-2.0939,-2.0969,-2.0977,-2.0979,-2.1,-2.1006,-2.1022,-2.1023,-2.1044,-2.1049,-2.105,-2.1068,-2.1065,-2.1085,-2.1083,-2.1115,-2.1111,-2.1112,-2.1111,-2.1132,-2.113,-2.1204,-2.1214,-2.1149,-2.115,-2.115,0,-2.0971,-2.0991,-2.1001,-2.1012,-2.1018,-2.1036,-2.1047,-2.1043,-2.1054,-2.1067,-2.1081,-2.1098,-2.1111,-2.1141,-2.1142,-2.1158,-2.1153,-2.1178,-2.1155,-2.1156,-2.1152,-2.1151,-2.1152,-2.1182,-2.1183,-2.1183,-2.1184,0,-2.1029,-2.1028,-2.1044,-2.106,-2.1073,-2.1085,-2.1096,-2.1106,-2.1103,-2.1116,-2.1135,-2.1145,-2.1166,-2.1183,-2.1197,-2.1202,-2.1192,-2.1191,-2.1197,-2.1198,-2.1198,-2.1197,-2.1123,-2.1189,-2.1189,-2.1188,-2.1188,-2.1188,-2.107,-2.1086,-2.1096,-2.1114,-2.1122,-2.1133,-2.1148,-2.1151,-2.1167,-2.1184,-2.1181,-2.1202,-2.1211,-2.1229,-2.1235,-2.1251,-2.1242,-2.125,-2.1252,-2.1254,-2.1256,-2.1196,-2.1254,-2.1254,-2.1253,-2.1253,-2.1253,0,-2.1125,-2.1131,-2.1148,-2.1164,-2.1179,-2.117,-2.1182,-2.1194,-2.1212,-2.1222,-2.1236,-2.1257,-2.1274,-2.1277,-2.1293,-2.1305,-2.1301,-2.1309,-2.1308,-2.1309,-2.1264,-2.1257,-2.1312,-2.1312,-2.1312,-2.1312,-2.1312,-2.1312,-2.1156,-2.1183,-2.1184,-2.1215,-2.122,-2.1241,-2.1249,-2.1258,-2.1266,-2.1291,-2.1305,-2.1307,-2.1314,-2.1331,-2.1345,-2.1346,-2.1352,-2.1361,-2.136,-2.1318,-2.1312,-2.1306,-2.13,-2.1363,-2.1363,-2.1404,-2.1404,-2.1404]}]]